Estación de Santa Rosa INIA

Ultimos registro cada 15 minutos 93
Estación Fecha / Hora Temperatura Humedad Lluvia Velocidad Dirección Radiación Presion
93 Santa Rosa INIA 31-08-2026 23:00 9 91,4 0 0 0 0,7 1001
92 Santa Rosa INIA 31-08-2026 22:45 9 91,9 0 0 0 0,7 1001
91 Santa Rosa INIA 31-08-2026 22:30 8,9 92,1 0 0 104 0,7 1002
90 Santa Rosa INIA 31-08-2026 22:15 9,2 90,9 0 0 0 0,7 1002
89 Santa Rosa INIA 31-08-2026 22:00 9,4 90,6 0 0 0 0,7 1002
88 Santa Rosa INIA 31-08-2026 21:45 9,7 90 0 0 0 0,7 1002
87 Santa Rosa INIA 31-08-2026 21:30 10,2 88,6 0 0 0 0,7 1001
86 Santa Rosa INIA 31-08-2026 21:15 10,6 88,2 0 0 0 0,7 1001
85 Santa Rosa INIA 31-08-2026 21:00 10,6 89,4 0 0 0 0,7 1002
84 Santa Rosa INIA 31-08-2026 20:45 10,4 90,4 0 0 0 0,7 1001
83 Santa Rosa INIA 31-08-2026 20:30 10,6 88,7 0 0 0 0,7 1002
82 Santa Rosa INIA 31-08-2026 20:15 11,3 86 0 0 0 0,7 1001
81 Santa Rosa INIA 31-08-2026 20:00 11,6 84,9 0 0 0 0,7 1001
80 Santa Rosa INIA 31-08-2026 19:45 12 84,4 0 0 0 0,7 1001
79 Santa Rosa INIA 31-08-2026 19:30 12,7 82,6 0 0 0 0,7 1001
78 Santa Rosa INIA 31-08-2026 19:15 13,2 82,1 0 0 0 0,7 1001
77 Santa Rosa INIA 31-08-2026 19:00 13,7 80,9 0 0 0 0,8 1001
76 Santa Rosa INIA 31-08-2026 18:45 14,1 78,3 0 0 0 1,6 1001
75 Santa Rosa INIA 31-08-2026 18:30 14,8 76,1 0 0 0 5,2 1001
74 Santa Rosa INIA 31-08-2026 18:15 15,4 71,2 0 0,4 211 21,9 1001
73 Santa Rosa INIA 31-08-2026 18:00 16 68,5 0 0,8 218 36,7 1001
72 Santa Rosa INIA 31-08-2026 17:45 16,1 60,3 0 0 0 37,5 1001
71 Santa Rosa INIA 31-08-2026 17:30 16,4 61,6 0 0 0 41,8 1001
70 Santa Rosa INIA 31-08-2026 17:15 17,2 56,5 0 0 0 42 1001
69 Santa Rosa INIA 31-08-2026 17:00 18 46,1 0 0,2 307 201,1 1001
68 Santa Rosa INIA 31-08-2026 16:45 18,1 48 0 0,6 348 253,1 1001
67 Santa Rosa INIA 31-08-2026 16:30 18,4 47,1 0 0 297 311,2 1001
66 Santa Rosa INIA 31-08-2026 16:15 18,1 44,4 0 0,5 328 358,9 1001
65 Santa Rosa INIA 31-08-2026 16:00 18 46,6 0 1,1 315 391,1 1001
64 Santa Rosa INIA 31-08-2026 15:45 17,9 46,5 0 1,2 317 439,8 1001
63 Santa Rosa INIA 31-08-2026 15:30 17,7 46,3 0 1,6 333 518,7 1001
62 Santa Rosa INIA 31-08-2026 15:15 17,3 46,8 0 1,9 325 339,8 1001
61 Santa Rosa INIA 31-08-2026 15:00 17,4 45,6 0 1,5 351 432,2 1001
60 Santa Rosa INIA 31-08-2026 14:45 17,1 46,6 0 2,1 9 391,8 1001
59 Santa Rosa INIA 31-08-2026 14:30 16,9 44,2 0 1,5 10 315,5 1001
58 Santa Rosa INIA 31-08-2026 14:15 17,2 47,2 0 2,3 14 296,3 1002
57 Santa Rosa INIA 31-08-2026 14:00 17,4 45,9 0 1,8 21 643,4 1002
56 Santa Rosa INIA 31-08-2026 13:45 17,1 46,6 0 2 30 617,2 1002
55 Santa Rosa INIA 31-08-2026 13:30 17 46,3 0 2,8 28 531,3 1002
54 Santa Rosa INIA 31-08-2026 13:15 17,1 50,9 0 2,8 32 566,1 1002
53 Santa Rosa INIA 31-08-2026 13:00 17,1 53,7 0 2,4 21 664,5 1002
52 Santa Rosa INIA 31-08-2026 12:45 16,7 52,7 0 2 15 630,2 1002
51 Santa Rosa INIA 31-08-2026 12:30 16,1 51,5 0 2,8 24 607 1003
50 Santa Rosa INIA 31-08-2026 12:15 15,8 55,6 0 3,1 37 604,8 1003
49 Santa Rosa INIA 31-08-2026 12:00 15,4 53,6 0 2,7 38 498,9 1003
48 Santa Rosa INIA 31-08-2026 11:45 15,3 58,9 0 2,6 33 511,1 1003
47 Santa Rosa INIA 31-08-2026 11:30 14,8 68 0 2,4 32 560,5 1003
46 Santa Rosa INIA 31-08-2026 11:15 14,3 61 0 2,5 34 472,8 1003
45 Santa Rosa INIA 31-08-2026 11:00 13,7 68,6 0 2,5 45 414,8 1003
44 Santa Rosa INIA 31-08-2026 10:45 13,1 69,2 0 2,7 46 337,8 1003
43 Santa Rosa INIA 31-08-2026 10:30 13,1 68,6 0 2,1 37 217,6 1003
42 Santa Rosa INIA 31-08-2026 10:15 12,8 73 0 1,7 40 218,9 1003
41 Santa Rosa INIA 31-08-2026 10:00 12,4 72,7 0 1,7 33 190,3 1003
40 Santa Rosa INIA 31-08-2026 09:45 12,1 74,8 0 0,6 20 161,9 1003
39 Santa Rosa INIA 31-08-2026 09:30 11,7 77,8 0 0,3 40 134,2 1002
38 Santa Rosa INIA 31-08-2026 09:15 11,3 77,6 0 1,6 44 87,4 1002
37 Santa Rosa INIA 31-08-2026 09:00 10,9 78,3 0 2 54 95,8 1002
36 Santa Rosa INIA 31-08-2026 08:45 10,4 82,6 0 2 63 109,6 1002
35 Santa Rosa INIA 31-08-2026 08:30 10 85,2 0 1,8 69 68,6 1002
34 Santa Rosa INIA 31-08-2026 08:15 9,6 86,6 0 1,9 73 54,2 1001
33 Santa Rosa INIA 31-08-2026 08:00 9,4 88,2 0 2 76 34,9 1001
32 Santa Rosa INIA 31-08-2026 07:45 9,2 89 0,1 1,8 81 19,5 1001
31 Santa Rosa INIA 31-08-2026 07:30 9,1 90,3 0 1 88 8,2 1000
30 Santa Rosa INIA 31-08-2026 07:15 9,1 90,1 0 1,2 87 3,8 1000
29 Santa Rosa INIA 31-08-2026 07:00 9,2 89,4 0 1,4 94 0,7 1000
28 Santa Rosa INIA 31-08-2026 06:45 9,3 87,5 0 2 77 0 1000
27 Santa Rosa INIA 31-08-2026 06:30 9,3 87,5 0 1,9 72 0 1000
26 Santa Rosa INIA 31-08-2026 06:15 9,2 88,1 0 1,8 74 0,2 1000
25 Santa Rosa INIA 31-08-2026 06:00 9,1 89,4 0,1 0 0 0,5 999
24 Santa Rosa INIA 31-08-2026 05:45 9,1 90,7 0 0 0 0 999
23 Santa Rosa INIA 31-08-2026 05:30 9,1 90,7 0 0 0 0,2 999
22 Santa Rosa INIA 31-08-2026 05:15 9,1 90,7 0 0 0 0,7 999
21 Santa Rosa INIA 31-08-2026 05:00 9,3 90,1 0 0 0 0,7 999
20 Santa Rosa INIA 31-08-2026 04:45 9,3 88,2 0 0,7 101 0,7 999
19 Santa Rosa INIA 31-08-2026 04:30 9,3 87,9 0 1,9 114 0,7 998
18 Santa Rosa INIA 31-08-2026 04:15 9,4 87,6 0 2,4 124 0,7 998
17 Santa Rosa INIA 31-08-2026 04:00 9,4 87,9 0 1,7 127 0,5 998
16 Santa Rosa INIA 31-08-2026 03:45 9,4 88,1 0 2,3 123 0,7 998
15 Santa Rosa INIA 31-08-2026 03:30 9,3 88,8 0 2,8 121 1 999
14 Santa Rosa INIA 31-08-2026 03:15 9,3 89,6 0 3,2 125 0,7 999
13 Santa Rosa INIA 31-08-2026 03:00 9,2 90,3 0,1 2,5 131 0,7 999
12 Santa Rosa INIA 31-08-2026 02:45 9,3 91,1 0,1 1,1 132 0,7 1000
11 Santa Rosa INIA 31-08-2026 02:30 9,3 91 0,1 1,1 138 0,7 999
10 Santa Rosa INIA 31-08-2026 02:15 9,3 91,4 0,2 0,6 141 0,7 999
9 Santa Rosa INIA 31-08-2026 02:00 9,4 90,9 0,2 0 0 0,7 999
8 Santa Rosa INIA 31-08-2026 01:45 9,4 90,7 0,2 0 135 0,7 999
7 Santa Rosa INIA 31-08-2026 01:30 9,4 90,4 0,2 0 0 0,7 999
6 Santa Rosa INIA 31-08-2026 01:15 9,4 90,1 0 0,1 130 0,7 999
5 Santa Rosa INIA 31-08-2026 01:00 9,5 89,7 0,1 0 130 0,7 999
4 Santa Rosa INIA 31-08-2026 00:45 9,6 89,3 0,4 0,1 146 0,7 999
3 Santa Rosa INIA 31-08-2026 00:30 9,9 88 0,5 0 0 0,7 999
2 Santa Rosa INIA 31-08-2026 00:15 10 85,4 0,2 0 0 0,7 998
1 Santa Rosa INIA 31-08-2026 00:00 10,1 85 0,1 0 0 0,7 998